sat.trackr.live / text

‹ back to catalog

STARLINK-3670

NORAD 52106 · 2022-029U

PAYLOAD ACTIVE UNKNOWN

§ Identity

Operator
Country
US
Launch date
2022-03-19
Launch site
AFETR
Launch vehicle
Mass (kg)
RCS (m²)

Purposes: comms

External: N2YO · Heavens-Above · Gunter

§ Orbital elements

Epoch: 2026-09-19T16:07:35.144256Z

Period
93.85 min
Inclination
53.1608°
Eccentricity
0.0001307
Mean motion
15.34384320 rev/d
Perigee alt
461.9 km
Apogee alt
463.6 km
Semi-major
6,840.9 km
B*
-6.7379e-6
RAAN
281.5435°
Arg perigee
71.0727°
Mean anomaly
289.0417°
Rev number
25,015

§ Raw data

STARLINK-36701 52106U 22029U   26262.67193454 -.00000604  00000+0 -67379-5 0  99942 52106  53.1608 281.5435 0001307  71.0727 289.0417 15.34384320250159

JSON: /api/v1/satellites/52106 · /tle

For live sub-satellite position, see the globe view (requires WebGL).

§ Visibility from observer

Set your observer location to see the next 7 days of passes ≥ 10°. The values pass through the URL so the page stays shareable.

No JS? Fill the form by hand. The geolocation button needs JavaScript.